Fairborn, OH

11:56 PM EDT on August 27, 2016 (GMT -0400)
Wright-Patterson Air Force Base

Weather History for KFFO - November, 2011

Change the Weather History Date:

Monday, November 28, 2011

  Actual Average Record
Temperature  
Mean Temperature 46 °F -  
Max Temperature 50 °F 46 °F 69 °F (2005)
Min Temperature 42 °F 30 °F 18 °F (2013)
Degree Days  
Heating Degree Days 19    
Moisture  
Dew Point 45 °F    
Average Humidity 98    
Maximum Humidity 100    
Minimum Humidity 93    
Precipitation  
Precipitation 1.15 in - - ()
Sea Level Pressure  
Sea Level Pressure 29.89 in    
Wind  
Wind Speed 10 mph (NNE)    
Max Wind Speed 16 mph    
Max Gust Speed -    
Visibility 8 miles    
Events Rain    
Averages and records for this station are not official NWS values.
T = Trace of Precipitation, MM = Missing Value Source: NWS Daily Summary

Daily Weather History Graph

Daily Weather History Graph

Search for Another Location

Airport or City:

Trip Planner

Search our weather history database for the weather conditions in past years. The results will help you decide how hot, cold, wet, or windy it might be!

Date:

Astronomy

Nov. 28, 2011 Rise Set
Actual Time 7:35 AM EST 5:12 PM EST
Civil Twilight 7:05 AM EST 5:42 PM EST
Nautical Twilight 6:31 AM EST 6:16 PM EST
Astronomical Twilight 5:59 AM EST 6:48 PM EST
Moon 10:44 AM EST 8:58 PM EST
Length of Visible Light 10h 37m
Length of Day
9h 37m
Waxing Crescent, 15% of the Moon is Illuminated
Nov 28
Waxing Crescent
Dec 2
First Quarter
Dec 10
Full
Dec 17
Last Quarter
Dec 24
New

Hourly Weather History & Observations

Time (EST) Temp. Windchill Dew Point Humidity Pressure Visibility Wind Dir Wind Speed Gust Speed Precip Events Conditions
12:00 AM 44.6 °F 40.7 °F 44.6 °F 100% 29.99 in 10.0 mi NNW 6.9 mph - N/A Rain Light Rain
12:05 AM 44.6 °F 40.7 °F 44.6 °F 100% 29.98 in 10.0 mi North 6.9 mph - N/A Rain Light Rain
12:10 AM 44.6 °F 40.7 °F 44.6 °F 100% 29.97 in 10.0 mi North 6.9 mph - N/A Rain Light Rain
12:23 AM 44.6 °F 40.2 °F 44.6 °F 100% 29.96 in 10.0 mi North 8.1 mph - N/A Rain Light Rain
12:35 AM 44.6 °F 40.7 °F 44.6 °F 100% 29.95 in 10.0 mi North 6.9 mph - N/A Rain Light Rain
12:49 AM 44.6 °F 39.7 °F 44.6 °F 100% 29.96 in 10.0 mi North 9.2 mph - N/A   Light Drizzle
12:55 AM 44.8 °F 39.9 °F 44.4 °F 99% 29.96 in 10.0 mi North 9.2 mph - 0.05 in Rain Light Rain
1:09 AM 44.6 °F 39.2 °F 44.6 °F 100% 29.98 in 10.0 mi North 10.4 mph - N/A Rain Light Rain
1:25 AM 44.6 °F 40.2 °F 44.6 °F 100% 29.98 in 10.0 mi North 8.1 mph - N/A Rain Rain
1:55 AM 44.4 °F 39.0 °F 43.7 °F 97% 29.98 in 10.0 mi North 10.4 mph - 0.07 in Rain Rain
2:16 AM 44.6 °F 39.7 °F 42.8 °F 93% 29.99 in 10.0 mi NNE 9.2 mph - N/A Rain Rain
2:55 AM 43.3 °F 37.7 °F 42.4 °F 97% 29.98 in 10.0 mi North 10.4 mph - 0.06 in Rain Light Rain
3:55 AM 43.5 °F 38.3 °F 42.6 °F 97% 29.98 in 10.0 mi North 9.2 mph - 0.04 in Rain Light Rain
4:55 AM 43.0 °F 37.7 °F 41.9 °F 96% 30.00 in 10.0 mi NNE 9.2 mph - 0.04 in Rain Light Rain
5:03 AM 42.8 °F 36.2 °F 42.8 °F 100% 30.00 in 10.0 mi NNE 12.7 mph - N/A Rain Light Rain
5:22 AM 42.8 °F 37.0 °F 41.0 °F 93% 30.00 in 10.0 mi NNE 10.4 mph - N/A Rain Rain
5:55 AM 42.6 °F 36.3 °F 41.5 °F 96% 30.01 in 10.0 mi NNE 11.5 mph - 0.06 in Rain Light Rain
6:38 AM 42.8 °F 36.6 °F 41.0 °F 93% 30.01 in 10.0 mi NNE 11.5 mph - N/A Rain Light Rain
6:55 AM 42.3 °F 35.5 °F 41.2 °F 96% 30.01 in 10.0 mi NNE 12.7 mph - 0.04 in Rain Light Rain
7:55 AM 42.1 °F 35.2 °F 41.0 °F 96% 30.00 in 10.0 mi NNE 12.7 mph - 0.03 in Rain Light Rain
8:55 AM 42.4 °F 35.3 °F 41.2 °F 95% 29.99 in 10.0 mi NE 13.8 mph - 0.01 in Rain Light Rain
9:49 AM 42.8 °F 36.2 °F 42.8 °F 100% 29.98 in 10.0 mi NE 12.7 mph - N/A   Overcast
9:55 AM 43.3 °F 37.2 °F 42.3 °F 96% 29.98 in 10.0 mi NE 11.5 mph - 0.00 in   Light Drizzle
10:27 AM 44.6 °F 39.7 °F 42.8 °F 93% 29.99 in 6.0 mi NNE 9.2 mph - N/A   Light Drizzle
10:55 AM 43.9 °F 38.3 °F 42.8 °F 96% 29.98 in 6.0 mi North 10.4 mph - 0.03 in Rain Light Rain
11:55 AM 44.2 °F 38.4 °F 43.3 °F 97% 29.95 in 6.0 mi NNE 11.5 mph - 0.03 in Rain Light Rain
12:40 PM 44.6 °F 39.7 °F 44.6 °F 100% 29.93 in 6.0 mi North 9.2 mph - N/A Rain Rain
12:55 PM 45.1 °F 40.3 °F 44.2 °F 97% 29.92 in 6.0 mi North 9.2 mph - 0.07 in Rain Light Rain
1:40 PM 44.6 °F 38.1 °F 44.6 °F 100% 29.91 in 6.0 mi NNE 13.8 mph - N/A Rain Light Rain
1:55 PM 45.5 °F 39.6 °F 44.8 °F 97% 29.90 in 6.0 mi NNE 12.7 mph - 0.03 in Rain Light Rain
2:19 PM 46.4 °F 41.1 °F 46.4 °F 100% 29.88 in 6.0 mi NNE 11.5 mph - N/A Rain Light Rain
2:25 PM 46.4 °F 40.7 °F 46.4 °F 100% 29.88 in 6.0 mi NNE 12.7 mph - N/A   Light Drizzle
2:55 PM 46.9 °F - 46.0 °F 97% 29.86 in 6.0 mi NNE 12.7 mph - 0.02 in   Overcast
3:15 PM 46.4 °F 40.7 °F 46.4 °F 100% 29.86 in 6.0 mi NE 12.7 mph - N/A Rain Light Rain
3:55 PM 46.8 °F - 45.9 °F 97% 29.87 in 4.0 mi NNE 12.7 mph - 0.02 in   Light Drizzle
3:59 PM 46.4 °F 40.7 °F 46.4 °F 100% 29.86 in 2.0 mi NNE 12.7 mph - N/A Rain Light Rain
4:29 PM 46.4 °F 41.1 °F 46.4 °F 100% 29.84 in 4.0 mi NNE 11.5 mph - N/A Rain Light Rain
4:55 PM 47.1 °F - 46.6 °F 98% 29.84 in 4.0 mi NNE 11.5 mph - 0.06 in   Light Drizzle
5:55 PM 46.9 °F - 46.4 °F 98% 29.84 in 4.0 mi NNE 11.5 mph - 0.03 in   Light Drizzle
6:55 PM 46.9 °F - 46.4 °F 98% 29.84 in 4.0 mi NE 9.2 mph - 0.04 in Rain Light Rain
7:37 PM 48.2 °F - 46.4 °F 93% 29.83 in 4.0 mi NNE 8.1 mph - N/A Rain Rain
7:55 PM 47.5 °F - 47.1 °F 99% 29.82 in 4.0 mi North 11.5 mph - 0.07 in Rain Rain
8:42 PM 48.2 °F - 48.2 °F 100% 29.79 in 4.0 mi NE 12.7 mph - N/A Rain Light Rain
8:55 PM 48.2 °F - 47.8 °F 99% 29.78 in 4.0 mi NNE 12.7 mph - 0.15 in Rain Light Rain
9:15 PM 48.2 °F - 48.2 °F 100% 29.77 in 10.0 mi NNE 12.7 mph - N/A   Overcast
9:33 PM 50.0 °F - 48.2 °F 94% 29.77 in 10.0 mi NNE 12.7 mph - N/A   Overcast
9:39 PM 50.0 °F - 48.2 °F 94% 29.77 in 10.0 mi NE 12.7 mph - N/A Rain Light Rain
9:55 PM 49.5 °F - 49.3 °F 99% 29.76 in 9.0 mi NE 12.7 mph - 0.02 in Rain Light Rain
10:28 PM 50.0 °F - 50.0 °F 100% 29.75 in 8.0 mi NNE 12.7 mph - N/A Rain Rain
10:30 PM 50.0 °F - 50.0 °F 100% 29.75 in 8.0 mi NE 11.5 mph - N/A Rain Light Rain
10:31 PM 50.0 °F - 50.0 °F 100% 29.75 in 8.0 mi NE 12.7 mph - N/A Rain Light Rain
10:40 PM 50.0 °F - 50.0 °F 100% 29.74 in 10.0 mi NE 12.7 mph - N/A Rain Light Rain
10:55 PM 50.0 °F - 49.6 °F 99% 29.74 in 7.0 mi NNE 12.7 mph - 0.10 in Rain Rain
11:34 PM 50.0 °F - 50.0 °F 100% 29.71 in 10.0 mi NNE 15.0 mph - N/A Rain Light Rain
11:55 PM 50.4 °F - 50.2 °F 99% 29.70 in 10.0 mi NE 16.1 mph - 0.08 in Rain Light Rain